Regional Weather Roundup
Issued by NWS

Home | Current Version | Previous Version | Text Only | Print | Product List | Glossary Off
Versions: 1 2 3 4 5 6 7 8 9 10 11 12 13 14 15 16 17 18 19 20 21 22 23 24 25 26 27 28 29 30 31 32 33 34 35 36 37 38 39 40 41 42 43 44 45 46 47 48 49 50

000
ASUS43 KMKX 172011
RWRWI

WISCONSIN REGIONAL WEATHER ROUNDUP
NATIONAL WEATHER SERVICE MILWAUKEE/SULLIVAN WI
300 PM CDT TUE OCT 17 2017

NOTE: "FAIR" INDICATES FEW OR NO CLOUDS BELOW 12,000 FEET WITH NO
SIGNIFICANT WEATHER AND/OR OBSTRUCTIONS TO VISIBILITY.

WIZ001-002-006>008-014>016-023>028-172100-
NORTHWEST WISCONSIN

CITY           SKY/WX    TMP DP  RH WIND       PRES   REMARKS
SUPERIOR ARPT  SUNNY     71  39  31 SW9       29.91F
ASHLAND        SUNNY     71  37  28 S12       29.93F
HAYWARD        SUNNY     69  40  34 SW7       29.94F
SIREN          CLOUDY    70  40  32 SW9       29.94S
CUMBERLAND     SUNNY     68  41  37 SW10      29.96S
RICE LAKE      SUNNY     71  41  33 SW10      29.97F
CHETEK         SUNNY     70  45  40 SW9       29.96F
LADYSMITH      CLOUDY    67  44  42 S8        29.98F
EAU CLAIRE     SUNNY     70  43  37 S12       29.96F
MENOMONIE      SUNNY     71  44  38 S12       29.97F
NEW RICHMOND   SUNNY     69  42  38 SW7       29.96F
OSCEOLA        SUNNY     70  45  39 S9        29.98F
$$

WIZ003>005-009-010-017-018-172100-
NORTH CENTRAL WISCONSIN

CITY           SKY/WX    TMP DP  RH WIND       PRES   REMARKS
MANITOWISH WTR SUNNY     67  38  34 S6        29.97F
ARBOR VITAE    SUNNY     69  42  37 S3        29.98F
WOODRUFF       SUNNY     69  42  37 S3        29.98F
RHINELANDER    CLOUDY    68  41  37 S6        29.99F
EAGLE RIVER    SUNNY     66  34  29 SW8       29.98F
LAND O LAKES   SUNNY     69  32  26 W8        29.99F
PHILLIPS       CLOUDY    68  43  40 SW7       29.97F
TOMAHAWK       CLOUDY    67  40  36 SW5       29.98F
MEDFORD        CLOUDY    67  44  43 SW9       29.98F
MERRILL        CLOUDY    69  44  40 SW9       29.99F
$$

WIZ029-030-035-036-043>047-172100-
CENTRAL WISCONSIN

CITY           SKY/WX    TMP DP  RH WIND       PRES   REMARKS
WAUSAU         CLOUDY    69  44  40 S8        29.98F
MOSINEE        PTSUNNY   66  46  48 S10       30.01F
MARSHFIELD     SUNNY     70  42  36 SW13      29.99F
STEVENS POINT  SUNNY     67  45  44 S7        30.01F
WAUPACA        SUNNY     71  46  41 S8        30.01F
WAUTOMA        SUNNY     70  47  43 SW8       30.02F
WISC RAPIDS    SUNNY     69  47  45 S12       30.02F
CAMP DOUGLAS   MOSUNNY   70  46  43 S6        30.01F
$$

WIZ011>013-019>022-031-037>040-048>050-172100-
NORTHEAST WISCONSIN

CITY           SKY/WX    TMP DP  RH WIND       PRES   REMARKS
ANTIGO         MOSUNNY   65  44  46 SW7       30.00F
SHAWANO        SUNNY     71  44  37 SW3       29.99F
OCONTO         CLOUDY    70  43  37 W7        29.99F
STURGEON BAY   MOSUNNY   66  45  46 SW6       30.01F
GREEN BAY      SUNNY     67  50  54 SW9       30.02S
MANITOWOC      SUNNY     68  46  45 SW14      30.03F
APPLETON       MOSUNNY   68  43  40 SW9       30.01F
CLINTONVILLE   SUNNY     72  45  37 SW12G17   30.00F
OSHKOSH        SUNNY     68  47  46 SW10      30.03F
$$

WIZ032>034-041-042-053>061-172100-
SOUTHWEST WISCONSIN

CITY           SKY/WX    TMP DP  RH WIND       PRES   REMARKS
LA CROSSE      SUNNY     70  46  42 S12       30.00F
SPARTA         SUNNY     69  46  43 S6        30.02S
VIROQUA        SUNNY     67  46  46 S13       30.04F
BOSCOBEL       SUNNY     73  44  35 SW10G20   30.04F
PRAIRIE DU CHI SUNNY     72  41  32 S6        30.04F
PLATTEVILLE    SUNNY     71  45  39 SW17G23   30.08F
$$

WIZ056-057-062-063-064-067-068-172100-
SOUTH CENTRAL WISCONSIN

CITY           SKY/WX    TMP DP  RH WIND       PRES   REMARKS
REEDSBURG      SUNNY     69  46  43 SW9       30.04S
BARABOO/DELLS  SUNNY     68  43  40 SW9       30.04S
LONE ROCK      SUNNY     70  46  42 SW13      30.04F
MINERAL POINT  SUNNY     72  43  35 SW15      30.07F
MADISON        MOSUNNY   69  44  40 SW9       30.06F
MIDDLETON      SUNNY     71  43  36 SW16G22   30.06F
WATERTOWN      SUNNY     70  46  42 SW15G23   30.05F
MONROE         SUNNY     70  41  35 SW18G25   30.08F
JANESVILLE     MOSUNNY   73  41  31 SW16G23   30.08F
$$

WIZ051-052-058>065-066-070>072-172100-
SOUTHEAST WISCONSIN

CITY           SKY/WX    TMP DP  RH WIND       PRES   REMARKS
MILWAUKEE      MOSUNNY   72  43  35 SW18G28   30.07F
WAUKESHA       SUNNY     70  41  35 SW13G22   30.07F
MILWAUKEE/TIMM SUNNY     72  37  28 SW18      30.06F
RACINE         SUNNY     72  43  35 SW17G29   30.08F
BURLINGTON     SUNNY     72  44  37 SW16G24   30.08F
KENOSHA        SUNNY     72  43  35 SW17G26   30.09F
FOND DU LAC    SUNNY     69  43  38 SW12      30.04F
SHEBOYGAN      SUNNY     69  48  47 W8        30.04F
WEST BEND      SUNNY     68  41  37 SW13      30.05S
JUNEAU         SUNNY     68  45  44 SW15      30.07S
$$

LSZ147-162-172100-
LAKE SUPERIOR

STATION/POSITION TIME  TEMP    WIND        PRES    WAVE
                       AIR SEA DIR/SP/G            HT/PER
                 (UTC) (F)     (DEG/KT/KT) (MB)    (FT/S)
W MID LAKE BUOY  1950   54 53              1013.5F   2/ 4
DEVILS ISLAND    2000   56      20/  2/  2 1013.4F
SAXON HARBOR     1930   69      10/  5/ 12 1013.2F
$$

LMZ867-665-643>646-172100-
LAKE MICHIGAN

STATION/POSITION TIME  TEMP    WIND        PRES    WAVE
                       AIR SEA DIR/SP/G            HT/PER
                 (UTC) (F)     (DEG/KT/KT) (MB)    (FT/S)
S GREEN BAY BUOY 2000   61 58  190/ 12/ 14 1015.6
N MID LAKE BUOY  1950   58 59  200/ 16/ 17 1016.3F   4/ 7
NORTHPORT PIER   1940   63     180/  1/  5 1015.6S
KEWAUNEE LAKESHO 1948   68     240/  5/ 11 1015.7F
SHEBOYGAN LAKESH 2000   63     160/  8/  9 1016.9F
PORT WASHINGTON  1940   72     240/ 11/ 17 1018.3S
MILWAUKEE LAKESH 1950   70     230/ 16/ 18   N/A
S MID LAKE BUOY  1950   63 61  220/ 19/ 21 1019.0F   5/ 6
KENOSHA   LAKESH 2000   71     220/ 15/ 26 1018.3
$$

TC  - TEMPERATURE IN CELSIUS
VSB - VISIBILITY IN STATUTE MILES
WCI - WIND CHILL INDEX
HX  - HEAT INDEX





USA.gov is the U.S. government's official web portal to all federal, state and local government web resources and services.